Terminal Aerodrome Forecast
Issued by NWS Grand Forks, ND

Home | Current Version | Previous Version | Graphics & Text | Print | Product List | Glossary On
Versions: 1 2 3 4 5 6 7 8 9 10 11 12 13 14 15 16 17 18 19 20 21
000
FTUS43 KFGF 312041 AAB
TAFGFK
TAF AMD
KGFK 312041Z 3121/0118 32006KT P6SM BKN250
     FM010200 27005KT P6SM SKC
     FM010600 19005KT P6SM SCT250=

USA.gov is the U.S. government's official web portal to all federal, state and local government web resources and services.